Location: Chillicothe
(39.7950°N, 93.5520°W)
Time: 06:44:59
(UTC-05:00)

Tiros 1 - All Passes

Search period start: 16 October 2019 00:00
Search period end: 26 October 2019 00:00
Orbit: 630 x 664 km, 48.4° (Epoch: 15 October)

Date Brightness Start Highest point End Pass type
(mag) Time Alt. Az. Time Alt. Az. Time Alt. Az.
16 Oct - 03:09:37 10° SSW 03:13:46 30° SE 03:17:58 10° ENE visible
16 Oct - 04:51:00 10° WSW 04:55:46 63° NNW 05:00:33 10° NE visible
16 Oct - 06:34:22 10° WNW 06:38:38 30° N 06:42:54 10° NE visible
16 Oct - 08:17:21 10° NW 08:21:47 35° NNE 08:26:10 10° E daylight
16 Oct - 09:59:33 10° WNW 10:04:23 87° SSW 10:09:10 10° SE daylight
16 Oct - 11:42:56 10° W 11:46:04 18° SW 11:49:12 10° S daylight
17 Oct - 01:56:21 10° SSE 01:58:09 12° SE 01:59:56 10° ESE night (unlit)
17 Oct - 03:34:55 10° SW 03:39:38 65° SE 03:44:25 10° ENE visible
17 Oct - 05:17:34 10° W 05:22:05 40° NNW 05:26:38 10° NE visible
17 Oct - 07:00:58 10° WNW 07:05:11 29° N 07:09:23 10° ENE visible
17 Oct - 08:43:27 10° NW 08:48:09 50° NNE 08:52:49 10° E daylight
17 Oct - 10:25:49 10° WNW 10:30:21 42° SW 10:34:50 10° SSE daylight
18 Oct - 02:19:44 10° SSW 02:23:46 28° SE 02:27:51 10° ENE night (unlit)
18 Oct - 04:00:57 10° WSW 04:05:43 67° NNW 04:10:31 10° NE visible
18 Oct - 05:44:16 10° WNW 05:48:33 31° N 05:52:51 10° NE visible
18 Oct - 07:27:18 10° NW 07:31:42 34° NNE 07:36:05 10° ENE daylight
18 Oct - 09:09:31 10° WNW 09:14:21 88° NNE 09:19:09 10° ESE daylight
18 Oct - 10:52:43 10° W 10:56:05 19° SW 10:59:27 10° S daylight
19 Oct - 01:07:05 10° SE 01:08:10 11° SE 01:09:16 10° ESE night (unlit)
19 Oct - 02:44:56 10° SW 02:49:37 60° SE 02:54:21 10° ENE night (unlit)
19 Oct - 04:27:28 10° W 04:32:01 41° NNW 04:36:36 10° NE visible
19 Oct - 06:10:53 10° WNW 06:15:06 29° N 06:19:18 10° ENE visible
19 Oct - 07:53:25 10° NW 07:58:06 48° NNE 08:02:45 10° E daylight
19 Oct - 09:35:45 10° WNW 09:40:20 46° SW 09:44:54 10° SSE daylight
20 Oct - 01:29:53 10° S 01:33:47 26° SE 01:37:43 10° E night (unlit)
20 Oct - 03:10:55 10° WSW 03:15:41 71° NNW 03:20:29 10° NE visible
20 Oct - 04:54:11 10° WNW 04:58:28 31° N 05:02:47 10° NE visible
20 Oct - 06:37:15 10° NW 06:41:37 33° NNE 06:45:59 10° ENE visible
20 Oct - 08:19:28 10° WNW 08:24:19 83° NNE 08:29:08 10° ESE daylight
20 Oct - 10:02:31 10° W 10:06:06 21° SW 10:09:39 10° S daylight
21 Oct - 01:54:57 10° SW 01:59:35 56° SE 02:04:18 10° ENE night (unlit)
21 Oct - 03:37:23 10° W 03:41:57 43° NNW 03:46:33 10° NE visible
21 Oct - 05:20:49 10° WNW 05:25:01 29° N 05:29:13 10° ENE visible
21 Oct - 07:03:23 10° NW 07:08:02 46° NNE 07:12:40 10° E visible
21 Oct - 08:45:40 10° WNW 08:50:20 49° SW 08:54:57 10° SE daylight
22 Oct - 00:40:03 10° S 00:43:47 23° SE 00:47:34 10° E night (unlit)
22 Oct - 02:20:52 10° WSW 02:25:38 75° NNW 02:30:27 10° ENE night (unlit)
22 Oct - 04:04:06 10° WNW 04:08:23 32° N 04:12:43 10° NE visible
22 Oct - 05:47:12 10° NW 05:51:33 32° N 05:55:52 10° ENE visible
22 Oct - 07:29:27 10° WNW 07:34:17 78° NNE 07:39:05 10° ESE daylight
22 Oct - 09:12:22 10° W 09:16:07 23° SW 09:19:50 10° S daylight
23 Oct - 01:05:01 10° SW 01:09:35 51° SE 01:14:14 10° ENE night (unlit)
23 Oct - 02:47:19 10° W 02:51:53 45° NNW 02:56:30 10° NE night (unlit)
23 Oct - 04:30:44 10° WNW 04:34:55 29° N 04:39:07 10° ENE visible
23 Oct - 06:13:21 10° NW 06:17:58 44° NNE 06:22:35 10° E visible
23 Oct - 07:55:37 10° WNW 08:00:18 54° SW 08:04:59 10° SE daylight
23 Oct - 23:50:14 10° S 23:53:48 22° SE 23:57:25 10° E night (unlit)
24 Oct - 01:30:51 10° WSW 01:35:36 80° NNW 01:40:24 10° ENE night (unlit)
24 Oct - 03:14:00 10° WNW 03:18:19 32° N 03:22:39 10° NE visible
24 Oct - 04:57:09 10° NW 05:01:27 31° N 05:05:46 10° ENE visible
24 Oct - 06:39:25 10° WNW 06:44:14 73° NNE 06:49:03 10° ESE visible
24 Oct - 08:22:13 10° W 08:26:07 25° SW 08:30:00 10° S daylight
25 Oct - 00:15:03 10° SW 00:19:34 47° SE 00:24:09 10° ENE night (unlit)
25 Oct - 01:57:14 10° W 02:01:50 47° NNW 02:06:28 10° NE night (unlit)
25 Oct - 03:40:40 10° WNW 03:44:51 29° N 03:49:02 10° ENE visible
25 Oct - 05:23:19 10° NW 05:27:54 42° NNE 05:32:29 10° E visible
25 Oct - 07:05:33 10° WNW 07:10:17 58° SW 07:15:00 10° SE visible
25 Oct - 08:51:01 10° WSW 08:51:43 10° SW 08:52:25 10° SW daylight
25 Oct - 23:00:27 10° S 23:03:50 20° SE 23:07:14 10° E night (unlit)
